Total_Precipitation_Accumulation
0.72 0.71 0.72 0.68 0.67 0.68 0.74 0.86 1.07 0.96 0.60 0.44 0.43 0.46 0.54 0.60 0.60 0.57 0.55 0.66 0.72 0.79 0.90 0.94 1.02 1.21 1.57 2.12 2.72 3.62 4.21 3.86 3.09 2.57 2.48 2.77 3.20 3.65
0.80 0.81 0.76 0.72 0.74 0.77 0.81 0.81 0.88 1.01 0.81 0.44 0.40 0.42 0.52 0.66 0.75 0.65 0.60 0.74 0.76 0.78 0.80 0.82 0.89 1.04 1.29 1.62 2.06 2.65 3.53 3.97 3.73 3.22 2.85 2.93 3.15 3.53
0.83 0.84 0.81 0.77 0.85 0.88 0.92 0.92 0.87 0.90 0.93 0.55 0.44 0.48 0.63 0.74 0.81 0.76 0.74 0.73 0.72 0.76 0.78 0.82 0.85 0.96 1.15 1.38 1.62 1.99 2.63 3.37 3.80 3.80 3.48 3.21 3.15 3.22
0.88 0.89 0.88 0.85 0.88 0.91 0.98 0.98 0.90 0.84 0.91 0.76 0.58 0.63 0.72 0.81 0.85 0.82 0.81 0.79 0.70 0.73 0.75 0.84 0.90 0.96 1.09 1.25 1.42 1.63 2.03 2.56 3.12 3.53 3.64 3.32 3.13 3.16
0.85 0.90 0.93 0.94 0.89 0.88 0.98 1.03 0.97 0.91 0.93 0.93 0.74 0.68 0.77 0.89 1.00 0.99 0.94 0.92 0.81 0.78 0.79 0.86 0.95 0.96 1.02 1.16 1.34 1.48 1.65 1.83 2.22 2.83 3.42 3.49 3.25 3.19
0.77 0.79 0.88 1.01 1.02 1.03 1.07 1.06 1.08 1.12 1.11 1.09 0.94 0.83 0.88 0.97 1.11 1.17 1.13 1.07 1.00 0.91 0.93 0.98 1.03 1.05 1.01 1.01 1.07 1.18 1.34 1.62 1.95 2.39 2.87 3.27 3.28 3.18
0.75 0.71 0.80 1.05 1.23 1.39 1.45 1.34 1.35 1.47 1.45 1.39 1.27 1.12 1.02 1.08 1.18 1.17 1.23 1.16 1.15 1.08 1.03 1.04 0.99 0.96 0.94 0.94 0.97 1.01 1.10 1.31 1.60 1.92 2.35 2.73 2.98 3.11
0.84 0.74 0.79 1.03 1.17 1.30 1.43 1.41 1.46 1.65 1.76 1.70 1.54 1.33 1.04 0.94 1.02 1.21 1.41 1.55 1.49 1.25 1.15 1.16 1.00 0.97 0.92 0.84 0.93 0.99 1.03 1.18 1.40 1.63 1.94 2.26 2.56 2.87
0.86 0.80 0.82 0.92 1.05 1.07 1.17 1.20 1.22 1.40 1.65 1.75 1.70 1.33 1.11 1.01 1.20 1.43 1.50 1.60 1.49 1.41 1.42 1.49 1.20 1.07 0.95 0.95 1.04 1.01 1.05 1.11 1.21 1.37 1.62 1.86 2.13 2.47
0.90 0.84 0.78 0.81 0.93 1.09 1.17 1.12 1.04 1.12 1.36 1.56 1.74 1.54 1.33 1.35 1.61 1.86 1.97 1.99 1.76 1.63 1.59 1.78 1.47 1.22 1.09 1.04 1.10 1.03 1.00 1.02 1.07 1.16 1.32 1.54 1.76 2.06
0.94 0.88 0.78 0.74 0.92 1.08 1.06 1.04 0.96 1.01 1.14 1.34 1.48 1.55 1.57 1.72 2.01 2.39 2.55 2.53 2.28 1.97 1.76 1.78 1.70 1.54 1.48 1.41 1.32 1.22 1.06 0.97 0.99 1.04 1.14 1.28 1.50 1.85
0.95 0.91 0.97 0.95 1.03 1.05 0.97 1.02 1.11 1.00 0.96 1.01 1.06 1.11 1.17 1.31 1.71 2.14 2.46 2.56 2.34 2.26 1.98 1.78 1.79 1.81 2.14 1.95 1.59 1.31 1.14 1.07 1.01 1.00 1.02 1.07 1.23 1.40
0.98 0.97 0.92 1.06 1.08 1.04 1.02 1.00 1.16 1.10 1.00 1.08 1.06 0.99 0.99 1.09 1.25 1.58 2.08 2.45 2.45 2.24 1.99 1.97 2.10 1.81 1.95 2.05 1.81 1.45 1.13 1.02 0.95 0.98 1.00 0.99 1.03 1.10
0.95 0.88 0.87 1.03 1.08 1.10 1.07 1.10 1.16 1.15 1.08 1.09 1.02 0.95 0.95 1.03 1.17 1.36 1.64 1.96 2.11 2.03 1.86 1.99 2.32 2.00 1.75 1.65 1.65 1.63 1.31 1.10 0.94 0.90 0.89 1.05 1.11 1.12
1.05 1.08 1.04 1.13 1.16 1.08 1.04 1.08 1.05 1.00 1.07 1.10 0.98 0.85 0.83 0.93 1.03 1.13 1.25 1.48 1.69 1.76 1.78 1.86 2.09 2.11 1.93 1.66 1.37 1.34 1.35 1.35 1.11 0.96 0.91 0.90 0.90 0.92
1.19 1.18 1.19 1.21 1.17 1.10 1.04 0.94 0.86 0.88 0.97 1.00 0.93 0.83 0.75 0.80 0.92 1.03 1.14 1.25 1.52 1.67 1.74 1.86 2.09 2.30 2.21 1.64 1.37 1.21 1.09 1.34 1.30 1.09 0.98 0.94 0.86 0.76
1.28 1.33 1.27 1.23 1.21 1.10 0.95 0.84 0.80 0.85 0.90 0.86 0.86 0.86 0.83 0.81 0.84 0.91 1.09 1.21 1.39 1.51 1.68 1.94 2.19 2.29 2.33 2.06 1.71 1.32 1.04 1.04 1.14 1.10 1.04 1.05 1.03 0.88
1.31 1.31 1.15 1.00 0.96 0.91 0.85 0.79 0.76 0.75 0.74 0.77 0.83 0.84 0.83 0.84 0.85 0.87 1.01 1.17 1.30 1.37 1.46 1.68 2.04 2.33 2.49 2.49 2.01 1.45 1.15 1.09 1.21 1.20 1.08 1.05 1.13 1.06
1.11 0.99 0.89 0.83 0.80 0.76 0.73 0.71 0.71 0.66 0.66 0.72 0.77 0.79 0.78 0.82 0.86 0.88 0.95 1.08 1.20 1.31 1.42 1.53 1.78 2.10 2.25 2.39 2.39 1.79 1.34 1.21 1.31 1.45 1.30 1.06 1.01 1.05
0.84 0.82 0.81 0.79 0.81 0.82 0.79 0.75 0.71 0.70 0.71 0.69 0.69 0.72 0.75 0.82 0.85 0.85 0.89 1.02 1.11 1.21 1.35 1.46 1.66 1.88 2.00 1.94 2.03 2.06 1.85 1.47 1.32 1.48 1.47 1.26 1.14 1.20
0.77 0.76 0.76 0.79 0.83 0.85 0.79 0.75 0.74 0.70 0.66 0.65 0.64 0.63 0.67 0.75 0.78 0.76 0.83 0.94 1.02 1.11 1.20 1.32 1.50 1.67 1.83 1.85 1.77 1.76 1.96 1.96 1.53 1.39 1.43 1.43 1.36 1.34
0.76 0.77 0.76 0.78 0.83 0.85 0.82 0.77 0.76 0.72 0.66 0.64 0.61 0.60 0.61 0.68 0.72 0.74 0.80 0.87 0.90 0.97 1.08 1.22 1.37 1.56 1.76 1.88 1.79 1.65 1.78 2.00 1.97 1.69 1.49 1.37 1.33 1.30
0.80 0.82 0.81 0.80 0.80 0.81 0.81 0.77 0.74 0.71 0.67 0.64 0.61 0.60 0.62 0.65 0.66 0.72 0.78 0.80 0.84 0.89 0.99 1.18 1.34 1.48 1.69 1.81 1.81 1.67 1.62 1.73 1.77 1.73 1.80 1.56 1.15 0.90